TimeEST,TemperatureF,Dew PointF,Humidity,Sea Level PressureIn,VisibilityMPH,Wind Direction,Wind SpeedMPH,Gust SpeedMPH,PrecipitationIn,Events,Conditions,WindDirDegrees,DateUTC
12:53 AM,28.9,28.0,96,30.02,4.0,Calm,Calm,-,N/A,,Clear,0,2013-01-07 05:53:00
1:53 AM,25.0,24.1,96,30.04,3.0,Calm,Calm,-,N/A,,Clear,0,2013-01-07 06:53:00
2:53 AM,28.9,28.0,96,30.05,7.0,Calm,Calm,-,N/A,,Clear,0,2013-01-07 07:53:00
3:53 AM,25.0,24.1,96,30.06,6.0,Calm,Calm,-,N/A,,Clear,0,2013-01-07 08:53:00
4:53 AM,28.9,26.1,89,30.07,9.0,NW,3.5,-,N/A,,Clear,320,2013-01-07 09:53:00
5:53 AM,32.0,26.1,79,30.11,10.0,NW,3.5,-,N/A,,Clear,310,2013-01-07 10:53:00
6:53 AM,33.1,27.0,78,30.14,10.0,NW,3.5,-,N/A,,Clear,320,2013-01-07 11:53:00
7:53 AM,34.0,27.0,75,30.18,10.0,Calm,Calm,-,N/A,,Clear,0,2013-01-07 12:53:00
8:53 AM,37.0,28.9,73,30.22,10.0,WNW,3.5,-,N/A,,Clear,300,2013-01-07 13:53:00
9:53 AM,39.9,28.0,63,30.25,10.0,NW,8.1,-,N/A,,Clear,310,2013-01-07 14:53:00
10:53 AM,42.1,27.0,55,30.27,10.0,NNW,9.2,17.3,N/A,,Clear,330,2013-01-07 15:53:00
11:53 AM,41.0,27.0,57,30.27,10.0,NNW,8.1,-,N/A,,Mostly Cloudy,340,2013-01-07 16:53:00
12:53 PM,41.0,26.1,55,30.29,10.0,North,9.2,-,N/A,,Scattered Clouds,360,2013-01-07 17:53:00
2:53 PM,42.1,19.0,40,30.32,10.0,Variable,5.8,-,N/A,,Clear,0,2013-01-07 19:53:00
3:53 PM,41.0,17.1,38,30.35,10.0,North,4.6,-,N/A,,Clear,10,2013-01-07 20:53:00
4:53 PM,37.0,15.1,41,30.38,10.0,Calm,Calm,-,N/A,,Clear,0,2013-01-07 21:53:00
6:53 PM,30.0,21.9,72,30.40,10.0,Calm,Calm,-,N/A,,Clear,0,2013-01-07 23:53:00
7:53 PM,28.0,21.9,78,30.41,10.0,Calm,Calm,-,N/A,,Clear,0,2013-01-08 00:53:00
8:53 PM,25.0,21.0,85,30.41,10.0,Calm,Calm,-,N/A,,Clear,0,2013-01-08 01:53:00
9:53 PM,25.0,21.0,85,30.41,10.0,Calm,Calm,-,N/A,,Clear,0,2013-01-08 02:53:00
10:53 PM,23.0,19.9,88,30.40,10.0,Calm,Calm,-,N/A,,Clear,0,2013-01-08 03:53:00
11:53 PM,21.9,19.9,92,30.40,10.0,Calm,Calm,-,N/A,,Clear,0,2013-01-08 04:53:00